Time,TemperatureF,DewpointF,PressureIn,WindDirection,WindDirectionDegrees,WindSpeedMPH,WindSpeedGustMPH,Humidity,HourlyPrecipIn,Conditions,Clouds,dailyrainin,SoftwareType,DateUTC
2013-10-19 00:02:00,39.7,35.3,30.03,NW,317,0.0,4.0,84,0.00,,,0.00,Wunderground v.1.15,2013-10-19 05:02:00,
2013-10-19 00:08:00,39.7,35.3,30.03,NW,317,1.0,4.0,84,0.00,,,0.00,Wunderground v.1.15,2013-10-19 05:08:00,
2013-10-19 00:14:00,39.6,35.2,30.03,NW,317,1.0,4.0,84,0.00,,,0.00,Wunderground v.1.15,2013-10-19 05:14:00,
2013-10-19 00:20:00,39.6,35.2,30.03,NW,317,0.0,4.0,84,0.00,,,0.00,Wunderground v.1.15,2013-10-19 05:20:00,
2013-10-19 00:26:00,39.6,35.2,30.03,NW,317,0.0,4.0,84,0.00,,,0.00,Wunderground v.1.15,2013-10-19 05:26:00,
2013-10-19 00:32:00,39.6,35.2,30.03,NW,317,0.0,4.0,84,0.00,,,0.00,Wunderground v.1.15,2013-10-19 05:32:00,
2013-10-19 00:38:00,39.6,35.2,30.02,NW,317,0.0,4.0,84,0.00,,,0.00,Wunderground v.1.15,2013-10-19 05:38:00,
2013-10-19 00:44:00,39.6,35.2,30.02,NW,317,0.0,4.0,84,0.00,,,0.00,Wunderground v.1.15,2013-10-19 05:44:00,
2013-10-19 00:50:00,39.6,35.2,30.02,NW,317,1.0,1.0,84,0.00,,,0.00,Wunderground v.1.15,2013-10-19 05:50:00,
2013-10-19 00:56:00,39.5,35.1,30.02,NW,317,0.0,4.0,84,0.00,,,0.00,Wunderground v.1.15,2013-10-19 05:56:00,
2013-10-19 01:02:00,39.5,35.1,30.02,NW,317,0.0,0.0,84,0.00,,,0.00,Wunderground v.1.15,2013-10-19 06:02:00,
2013-10-19 01:08:00,39.5,35.1,30.02,NW,317,0.0,0.0,84,0.00,,,0.01,Wunderground v.1.15,2013-10-19 06:08:00,
2013-10-19 01:14:00,39.5,35.1,30.02,NW,317,0.0,0.0,84,0.00,,,0.01,Wunderground v.1.15,2013-10-19 06:14:00,
2013-10-19 01:20:00,39.5,35.4,30.02,NW,317,0.0,0.0,85,0.00,,,0.01,Wunderground v.1.15,2013-10-19 06:20:00,
2013-10-19 01:26:00,39.5,35.4,30.02,NW,317,0.0,0.0,85,0.00,,,0.01,Wunderground v.1.15,2013-10-19 06:26:00,
2013-10-19 01:32:00,39.5,35.4,30.02,NW,317,0.0,0.0,85,0.00,,,0.01,Wunderground v.1.15,2013-10-19 06:32:00,
2013-10-19 01:38:00,39.5,35.4,30.02,NW,317,0.0,0.0,85,0.00,,,0.01,Wunderground v.1.15,2013-10-19 06:38:00,
2013-10-19 01:44:00,39.5,35.4,30.02,NW,317,0.0,0.0,85,0.00,,,0.01,Wunderground v.1.15,2013-10-19 06:44:00,
2013-10-19 01:50:00,39.4,35.3,30.02,NW,317,0.0,0.0,85,0.00,,,0.01,Wunderground v.1.15,2013-10-19 06:50:00,
2013-10-19 01:56:00,39.4,35.3,30.01,NW,317,0.0,2.0,85,0.00,,,0.01,Wunderground v.1.15,2013-10-19 06:56:00,
2013-10-19 02:02:00,39.4,35.3,30.01,NW,317,0.0,2.0,85,0.00,,,0.01,Wunderground v.1.15,2013-10-19 07:02:00,
2013-10-19 02:08:00,39.4,35.3,30.02,NW,317,0.0,2.0,85,0.00,,,0.01,Wunderground v.1.15,2013-10-19 07:08:00,
2013-10-19 02:14:00,39.3,35.2,30.02,NW,317,0.0,2.0,85,0.00,,,0.01,Wunderground v.1.15,2013-10-19 07:14:00,
2013-10-19 02:20:00,39.3,35.2,30.02,NW,317,0.0,2.0,85,0.00,,,0.01,Wunderground v.1.15,2013-10-19 07:20:00,
2013-10-19 02:26:00,39.3,35.2,30.02,NW,317,0.0,2.0,85,0.00,,,0.01,Wunderground v.1.15,2013-10-19 07:26:00,
2013-10-19 02:32:00,39.3,35.2,30.02,NW,317,0.0,2.0,85,0.00,,,0.01,Wunderground v.1.15,2013-10-19 07:32:00,
2013-10-19 02:38:00,39.3,35.5,30.02,NW,313,0.0,2.0,86,0.00,,,0.01,Wunderground v.1.15,2013-10-19 07:38:00,
2013-10-19 02:44:00,39.2,35.4,30.02,NW,311,1.0,2.0,86,0.00,,,0.01,Wunderground v.1.15,2013-10-19 07:44:00,
2013-10-19 02:50:00,39.1,35.3,30.02,West,278,1.0,2.0,86,0.00,,,0.01,Wunderground v.1.15,2013-10-19 07:50:00,
2013-10-19 02:56:00,39.0,35.2,30.02,West,279,1.0,3.0,86,0.00,,,0.01,Wunderground v.1.15,2013-10-19 07:56:00,
2013-10-19 03:02:00,38.9,35.1,30.02,West,281,1.0,4.0,86,0.00,,,0.01,Wunderground v.1.15,2013-10-19 08:02:00,
2013-10-19 03:08:00,38.8,35.0,30.02,WNW,283,1.0,4.0,86,0.00,,,0.01,Wunderground v.1.15,2013-10-19 08:08:00,
2013-10-19 03:14:00,38.7,34.9,30.01,West,280,1.0,2.0,86,0.00,,,0.01,Wunderground v.1.15,2013-10-19 08:14:00,
2013-10-19 03:20:00,38.6,34.8,30.01,West,280,0.0,2.0,86,0.00,,,0.01,Wunderground v.1.15,2013-10-19 08:20:00,
2013-10-19 03:26:00,38.6,34.8,30.01,West,280,0.0,2.0,86,0.00,,,0.01,Wunderground v.1.15,2013-10-19 08:26:00,
2013-10-19 03:32:00,38.6,34.8,30.01,West,280,0.0,2.0,86,0.00,,,0.01,Wunderground v.1.15,2013-10-19 08:32:00,
2013-10-19 03:38:00,38.5,34.7,30.01,West,279,0.0,2.0,86,0.00,,,0.01,Wunderground v.1.15,2013-10-19 08:38:00,
2013-10-19 03:44:00,38.2,34.4,30.01,West,279,0.0,2.0,86,0.00,,,0.01,Wunderground v.1.15,2013-10-19 08:44:00,
2013-10-19 03:50:00,37.9,34.1,30.00,West,279,0.0,2.0,86,0.00,,,0.01,Wunderground v.1.15,2013-10-19 08:50:00,
2013-10-19 03:56:00,37.7,33.9,30.00,West,279,0.0,2.0,86,0.00,,,0.01,Wunderground v.1.15,2013-10-19 08:56:00,
2013-10-19 04:02:00,37.5,33.7,30.00,West,279,0.0,0.0,86,0.00,,,0.01,Wunderground v.1.15,2013-10-19 09:02:00,
2013-10-19 04:08:00,37.3,33.5,30.00,West,279,0.0,0.0,86,0.00,,,0.01,Wunderground v.1.15,2013-10-19 09:08:00,
2013-10-19 04:14:00,37.2,33.4,30.00,West,279,0.0,0.0,86,0.00,,,0.01,Wunderground v.1.15,2013-10-19 09:14:00,
2013-10-19 04:20:00,37.1,33.3,30.00,West,279,0.0,0.0,86,0.00,,,0.01,Wunderground v.1.15,2013-10-19 09:20:00,
2013-10-19 04:26:00,37.0,33.2,30.00,West,279,0.0,0.0,86,0.00,,,0.01,Wunderground v.1.15,2013-10-19 09:26:00,
2013-10-19 04:32:00,37.0,33.2,30.00,West,279,0.0,0.0,86,0.00,,,0.01,Wunderground v.1.15,2013-10-19 09:32:00,
2013-10-19 04:38:00,36.9,33.1,30.00,West,279,0.0,0.0,86,0.00,,,0.01,Wunderground v.1.15,2013-10-19 09:38:00,
2013-10-19 04:44:00,37.0,33.2,30.00,West,279,0.0,0.0,86,0.00,,,0.01,Wunderground v.1.15,2013-10-19 09:44:00,
2013-10-19 04:50:00,37.1,33.6,30.00,West,279,0.0,0.0,87,0.00,,,0.01,Wunderground v.1.15,2013-10-19 09:50:00,
2013-10-19 07:30:00,36.5,33.3,30.01,West,259,1.0,1.0,88,0.00,,,0.01,Wunderground v.1.15,2013-10-19 12:30:00,
2013-10-19 07:36:00,36.4,33.2,30.01,West,259,1.0,3.0,88,0.00,,,0.01,Wunderground v.1.15,2013-10-19 12:36:00,
2013-10-19 07:42:00,36.4,33.2,30.01,WSW,257,1.0,3.0,88,0.00,,,0.01,Wunderground v.1.15,2013-10-19 12:42:00,
2013-10-19 07:48:00,36.4,33.2,30.01,WSW,258,0.0,3.0,88,0.00,,,0.01,Wunderground v.1.15,2013-10-19 12:48:00,
2013-10-19 07:54:00,36.5,33.3,30.01,WSW,256,1.0,2.0,88,0.00,,,0.01,Wunderground v.1.15,2013-10-19 12:54:00,
2013-10-19 08:00:00,36.5,33.3,30.01,WSW,254,1.0,1.0,88,0.00,,,0.01,Wunderground v.1.15,2013-10-19 13:00:00,
2013-10-19 08:06:00,36.5,33.3,30.01,WSW,255,1.0,1.0,88,0.00,,,0.01,Wunderground v.1.15,2013-10-19 13:06:00,
2013-10-19 08:12:00,36.5,33.3,30.01,WSW,254,1.0,1.0,88,0.00,,,0.01,Wunderground v.1.15,2013-10-19 13:12:00,
2013-10-19 08:18:00,36.5,33.3,30.01,WSW,253,1.0,1.0,88,0.00,,,0.01,Wunderground v.1.15,2013-10-19 13:18:00,
2013-10-19 08:24:00,36.6,33.4,30.01,West,261,1.0,3.0,88,0.00,,,0.01,Wunderground v.1.15,2013-10-19 13:24:00,
2013-10-19 08:30:00,36.6,33.4,30.01,West,267,2.0,2.0,88,0.00,,,0.01,Wunderground v.1.15,2013-10-19 13:30:00,
2013-10-19 08:36:00,36.6,33.4,30.02,WSW,246,3.0,3.0,88,0.00,,,0.01,Wunderground v.1.15,2013-10-19 13:36:00,
2013-10-19 08:42:00,36.8,33.6,30.02,WSW,246,2.0,2.0,88,0.00,,,0.01,Wunderground v.1.15,2013-10-19 13:42:00,
2013-10-19 08:48:00,36.9,33.7,30.02,WSW,249,1.0,3.0,88,0.00,,,0.01,Wunderground v.1.15,2013-10-19 13:48:00,
2013-10-19 08:54:00,37.0,33.8,30.01,WSW,252,2.0,2.0,88,0.00,,,0.01,Wunderground v.1.15,2013-10-19 13:54:00,
2013-10-19 09:02:00,37.0,33.8,30.01,WSW,253,1.0,7.0,88,0.00,,,0.01,Wunderground v.1.15,2013-10-19 14:02:00,
2013-10-19 09:08:00,37.0,33.8,30.01,WSW,250,1.0,7.0,88,0.00,,,0.01,Wunderground v.1.15,2013-10-19 14:08:00,
2013-10-19 09:14:00,37.3,34.1,30.02,WSW,246,1.0,7.0,88,0.00,,,0.01,Wunderground v.1.15,2013-10-19 14:14:00,
2013-10-19 09:20:00,37.4,34.2,30.02,WSW,246,1.0,7.0,88,0.00,,,0.01,Wunderground v.1.15,2013-10-19 14:20:00,
2013-10-19 09:26:00,37.7,34.5,30.02,WSW,245,0.0,7.0,88,0.00,,,0.01,Wunderground v.1.15,2013-10-19 14:26:00,
2013-10-19 09:32:00,38.0,35.0,30.02,SW,234,1.0,7.0,89,0.00,,,0.01,Wunderground v.1.15,2013-10-19 14:32:00,
2013-10-19 09:38:00,38.2,35.0,30.02,SW,229,1.0,7.0,88,0.00,,,0.01,Wunderground v.1.15,2013-10-19 14:38:00,
2013-10-19 09:44:00,38.4,35.4,30.02,SW,227,1.0,7.0,89,0.00,,,0.01,Wunderground v.1.15,2013-10-19 14:44:00,
2013-10-19 09:50:00,38.6,35.4,30.01,SW,223,1.0,1.0,88,0.00,,,0.01,Wunderground v.1.15,2013-10-19 14:50:00,
2013-10-19 09:56:00,38.9,35.6,30.01,WSW,238,2.0,7.0,88,0.00,,,0.01,Wunderground v.1.15,2013-10-19 14:56:00,
2013-10-19 10:02:00,39.4,36.4,30.01,SW,232,2.0,4.0,89,0.00,,,0.01,Wunderground v.1.15,2013-10-19 15:02:00,
2013-10-19 10:08:00,39.9,36.9,30.01,WSW,246,2.0,4.0,89,0.00,,,0.01,Wunderground v.1.15,2013-10-19 15:08:00,
2013-10-19 10:14:00,40.5,37.5,30.01,WSW,245,1.0,2.0,89,0.00,,,0.01,Wunderground v.1.15,2013-10-19 15:14:00,
2013-10-19 10:20:00,40.9,37.6,30.01,WSW,245,2.0,2.0,88,0.00,,,0.01,Wunderground v.1.15,2013-10-19 15:20:00,
2013-10-19 10:26:00,41.2,37.9,30.01,WSW,242,2.0,3.0,88,0.00,,,0.01,Wunderground v.1.15,2013-10-19 15:26:00,
2013-10-19 10:32:00,41.3,38.0,30.01,SW,223,2.0,3.0,88,0.00,,,0.01,Wunderground v.1.15,2013-10-19 15:32:00,
2013-10-19 10:38:00,41.6,38.3,30.01,SW,219,2.0,4.0,88,0.00,,,0.01,Wunderground v.1.15,2013-10-19 15:38:00,
2013-10-19 10:44:00,42.0,38.7,30.01,SW,228,2.0,3.0,88,0.00,,,0.01,Wunderground v.1.15,2013-10-19 15:44:00,
2013-10-19 10:50:00,42.4,39.1,30.01,West,261,2.0,3.0,88,0.00,,,0.01,Wunderground v.1.15,2013-10-19 15:50:00,
2013-10-19 10:56:00,42.9,39.6,30.01,WSW,252,2.0,4.0,88,0.00,,,0.01,Wunderground v.1.15,2013-10-19 15:56:00,
2013-10-19 11:02:00,43.3,39.7,30.01,SW,229,2.0,4.0,87,0.00,,,0.01,Wunderground v.1.15,2013-10-19 16:02:00,
2013-10-19 11:08:00,43.8,40.2,30.01,South,181,3.0,6.0,87,0.00,,,0.01,Wunderground v.1.15,2013-10-19 16:08:00,
2013-10-19 11:14:00,43.8,39.9,30.00,SSE,155,3.0,4.0,86,0.00,,,0.01,Wunderground v.1.15,2013-10-19 16:14:00,
2013-10-19 11:20:00,44.1,40.2,30.00,SSW,207,3.0,3.0,86,0.00,,,0.01,Wunderground v.1.15,2013-10-19 16:20:00,
2013-10-19 11:26:00,44.5,40.6,30.00,WSW,238,3.0,4.0,86,0.00,,,0.01,Wunderground v.1.15,2013-10-19 16:26:00,
2013-10-19 11:32:00,44.9,41.0,30.00,West,272,2.0,4.0,86,0.00,,,0.01,Wunderground v.1.15,2013-10-19 16:32:00,
2013-10-19 11:38:00,45.4,41.8,30.00,WSW,257,2.0,4.0,87,0.00,,,0.01,Wunderground v.1.15,2013-10-19 16:38:00,
2013-10-19 11:44:00,46.1,42.1,30.00,SSE,159,3.0,4.0,86,0.00,,,0.01,Wunderground v.1.15,2013-10-19 16:44:00,
2013-10-19 11:50:00,46.3,42.3,30.00,South,182,3.0,4.0,86,0.00,,,0.01,Wunderground v.1.15,2013-10-19 16:50:00,
2013-10-19 11:56:00,46.6,42.6,30.00,WSW,245,3.0,5.0,86,0.00,,,0.01,Wunderground v.1.15,2013-10-19 16:56:00,
2013-10-19 12:02:00,46.9,42.6,29.99,SSW,207,2.0,3.0,85,0.00,,,0.01,Wunderground v.1.15,2013-10-19 17:02:00,
2013-10-19 12:08:00,47.4,43.1,29.99,South,172,2.0,3.0,85,0.00,,,0.01,Wunderground v.1.15,2013-10-19 17:08:00,
2013-10-19 12:14:00,47.6,43.3,29.99,SW,219,2.0,4.0,85,0.00,,,0.01,Wunderground v.1.15,2013-10-19 17:14:00,
2013-10-19 12:20:00,47.9,43.3,29.99,WSW,252,2.0,2.0,84,0.00,,,0.01,Wunderground v.1.15,2013-10-19 17:20:00,
2013-10-19 12:26:00,48.2,43.6,29.98,SW,223,3.0,3.0,84,0.00,,,0.01,Wunderground v.1.15,2013-10-19 17:26:00,
2013-10-19 12:32:00,48.4,43.5,29.98,WSW,237,3.0,3.0,83,0.00,,,0.01,Wunderground v.1.15,2013-10-19 17:32:00,
2013-10-19 12:38:00,48.6,44.0,29.98,WSW,244,3.0,3.0,84,0.00,,,0.01,Wunderground v.1.15,2013-10-19 17:38:00,
2013-10-19 12:44:00,48.9,44.0,29.98,West,275,2.0,3.0,83,0.00,,,0.01,Wunderground v.1.15,2013-10-19 17:44:00,
2013-10-19 12:50:00,49.1,44.2,29.98,SSW,211,2.0,2.0,83,0.00,,,0.01,Wunderground v.1.15,2013-10-19 17:50:00,
2013-10-19 12:56:00,49.5,44.6,29.97,South,169,3.0,7.0,83,0.00,,,0.01,Wunderground v.1.15,2013-10-19 17:56:00,
2013-10-19 13:02:00,49.7,44.4,29.97,SW,225,3.0,7.0,82,0.00,,,0.01,Wunderground v.1.15,2013-10-19 18:02:00,
2013-10-19 13:08:00,49.9,44.6,29.97,SSW,205,2.0,7.0,82,0.00,,,0.01,Wunderground v.1.15,2013-10-19 18:08:00,
2013-10-19 13:14:00,50.4,45.1,29.97,SSE,165,2.0,7.0,82,0.00,,,0.01,Wunderground v.1.15,2013-10-19 18:14:00,
2013-10-19 13:20:00,50.8,45.5,29.97,WSW,248,3.0,7.0,82,0.00,,,0.01,Wunderground v.1.15,2013-10-19 18:20:00,
2013-10-19 13:26:00,51.2,45.6,29.96,SSE,161,3.0,7.0,81,0.00,,,0.01,Wunderground v.1.15,2013-10-19 18:26:00,
2013-10-19 13:32:00,51.4,45.8,29.96,South,177,3.0,7.0,81,0.00,,,0.01,Wunderground v.1.15,2013-10-19 18:32:00,
2013-10-19 13:38:00,51.7,46.1,29.96,SW,214,2.0,7.0,81,0.00,,,0.01,Wunderground v.1.15,2013-10-19 18:38:00,
2013-10-19 13:44:00,52.1,46.4,29.96,WSW,240,2.0,7.0,81,0.00,,,0.01,Wunderground v.1.15,2013-10-19 18:44:00,
2013-10-19 13:50:00,52.4,46.4,29.95,WSW,249,2.0,2.0,80,0.00,,,0.01,Wunderground v.1.15,2013-10-19 18:50:00,
2013-10-19 13:56:00,52.5,46.5,29.95,South,184,2.0,7.0,80,0.00,,,0.01,Wunderground v.1.15,2013-10-19 18:56:00,
2013-10-19 14:02:00,52.8,46.5,29.95,SSE,161,3.0,10.0,79,0.00,,,0.01,Wunderground v.1.15,2013-10-19 19:02:00,
2013-10-19 14:08:00,53.0,46.3,29.94,SW,224,3.0,10.0,78,0.00,,,0.01,Wunderground v.1.15,2013-10-19 19:08:00,
2013-10-19 14:14:00,53.1,46.4,29.94,SW,230,2.0,7.0,78,0.00,,,0.01,Wunderground v.1.15,2013-10-19 19:14:00,
2013-10-19 14:20:00,53.4,46.7,29.94,SW,236,1.0,7.0,78,0.00,,,0.01,Wunderground v.1.15,2013-10-19 19:20:00,
2013-10-19 14:26:00,53.6,46.9,29.94,SSW,203,2.0,7.0,78,0.00,,,0.01,Wunderground v.1.15,2013-10-19 19:26:00,
2013-10-19 14:32:00,53.9,46.5,29.94,SW,218,2.0,7.0,76,0.00,,,0.01,Wunderground v.1.15,2013-10-19 19:32:00,
2013-10-19 14:38:00,53.9,46.5,29.93,SW,229,3.0,7.0,76,0.00,,,0.01,Wunderground v.1.15,2013-10-19 19:38:00,
2013-10-19 14:44:00,54.0,46.3,29.93,WSW,250,3.0,7.0,75,0.00,,,0.01,Wunderground v.1.15,2013-10-19 19:44:00,
2013-10-19 14:50:00,54.1,46.3,29.93,SW,226,3.0,7.0,75,0.00,,,0.01,Wunderground v.1.15,2013-10-19 19:50:00,
2013-10-19 14:56:00,54.3,46.2,29.93,SW,215,3.0,7.0,74,0.00,,,0.01,Wunderground v.1.15,2013-10-19 19:56:00,
2013-10-19 15:02:00,54.4,46.3,29.93,WSW,246,2.0,3.0,74,0.00,,,0.01,Wunderground v.1.15,2013-10-19 20:02:00,
2013-10-19 15:08:00,54.5,46.0,29.93,SW,234,2.0,3.0,73,0.00,,,0.01,Wunderground v.1.15,2013-10-19 20:08:00,
2013-10-19 15:14:00,54.6,46.1,29.93,SW,221,2.0,5.0,73,0.00,,,0.01,Wunderground v.1.15,2013-10-19 20:14:00,
2013-10-19 15:20:00,54.6,46.1,29.92,West,263,2.0,2.0,73,0.00,,,0.01,Wunderground v.1.15,2013-10-19 20:20:00,
2013-10-19 15:26:00,54.7,45.8,29.93,West,262,2.0,3.0,72,0.00,,,0.01,Wunderground v.1.15,2013-10-19 20:26:00,
2013-10-19 15:32:00,54.8,45.9,29.92,WSW,256,1.0,2.0,72,0.00,,,0.01,Wunderground v.1.15,2013-10-19 20:32:00,
2013-10-19 15:38:00,54.8,45.6,29.92,SSE,163,2.0,3.0,71,0.00,,,0.01,Wunderground v.1.15,2013-10-19 20:38:00,
2013-10-19 15:44:00,54.8,45.6,29.92,SW,215,2.0,2.0,71,0.00,,,0.01,Wunderground v.1.15,2013-10-19 20:44:00,
2013-10-19 15:50:00,54.9,44.9,29.92,SSW,203,2.0,2.0,69,0.00,,,0.01,Wunderground v.1.15,2013-10-19 20:50:00,
2013-10-19 15:56:00,54.8,45.2,29.92,SW,223,3.0,7.0,70,0.00,,,0.01,Wunderground v.1.15,2013-10-19 20:56:00,
2013-10-19 16:02:00,54.8,44.8,29.92,South,172,3.0,4.0,69,0.00,,,0.01,Wunderground v.1.15,2013-10-19 21:02:00,
2013-10-19 16:08:00,54.8,44.8,29.91,SW,236,3.0,7.0,69,0.00,,,0.01,Wunderground v.1.15,2013-10-19 21:08:00,
2013-10-19 16:14:00,55.0,45.4,29.91,WSW,238,1.0,4.0,70,0.00,,,0.01,Wunderground v.1.15,2013-10-19 21:14:00,
2013-10-19 16:20:00,55.1,45.1,29.91,WSW,242,2.0,7.0,69,0.00,,,0.01,Wunderground v.1.15,2013-10-19 21:20:00,
2013-10-19 16:26:00,55.2,44.8,29.91,South,183,2.0,7.0,68,0.00,,,0.01,Wunderground v.1.15,2013-10-19 21:26:00,
2013-10-19 16:32:00,55.3,44.9,29.91,NW,310,2.0,5.0,68,0.00,,,0.01,Wunderground v.1.15,2013-10-19 21:32:00,
2013-10-19 16:38:00,55.3,44.9,29.91,West,260,1.0,7.0,68,0.00,,,0.01,Wunderground v.1.15,2013-10-19 21:38:00,
2013-10-19 16:44:00,55.2,44.4,29.91,SSE,159,2.0,7.0,67,0.00,,,0.01,Wunderground v.1.15,2013-10-19 21:44:00,
2013-10-19 16:50:00,55.1,44.3,29.91,South,190,2.0,7.0,67,0.00,,,0.01,Wunderground v.1.15,2013-10-19 21:50:00,
2013-10-19 16:56:00,55.0,44.2,29.91,South,182,2.0,7.0,67,0.00,,,0.01,Wunderground v.1.15,2013-10-19 21:56:00,
2013-10-19 17:02:00,55.0,44.2,29.91,SW,223,2.0,7.0,67,0.00,,,0.01,Wunderground v.1.15,2013-10-19 22:02:00,
2013-10-19 17:08:00,55.0,44.2,29.91,South,188,1.0,7.0,67,0.00,,,0.01,Wunderground v.1.15,2013-10-19 22:08:00,
2013-10-19 17:14:00,54.8,44.0,29.91,WSW,254,2.0,7.0,67,0.00,,,0.01,Wunderground v.1.15,2013-10-19 22:14:00,
2013-10-19 17:20:00,54.7,43.6,29.91,SSW,192,2.0,7.0,66,0.00,,,0.01,Wunderground v.1.15,2013-10-19 22:20:00,
2013-10-19 17:26:00,54.5,43.4,29.91,South,190,2.0,7.0,66,0.00,,,0.01,Wunderground v.1.15,2013-10-19 22:26:00,
2013-10-19 17:32:00,54.3,43.2,29.91,SSW,192,1.0,7.0,66,0.00,,,0.01,Wunderground v.1.15,2013-10-19 22:32:00,
2013-10-19 17:38:00,54.2,43.1,29.91,SW,222,1.0,7.0,66,0.00,,,0.01,Wunderground v.1.15,2013-10-19 22:38:00,
2013-10-19 17:44:00,54.1,43.0,29.91,WSW,245,2.0,7.0,66,0.00,,,0.01,Wunderground v.1.15,2013-10-19 22:44:00,
2013-10-19 17:50:00,53.9,42.8,29.91,WSW,237,1.0,1.0,66,0.00,,,0.01,Wunderground v.1.15,2013-10-19 22:50:00,
2013-10-19 17:56:00,53.7,42.6,29.91,WSW,237,0.0,7.0,66,0.00,,,0.01,Wunderground v.1.15,2013-10-19 22:56:00,
2013-10-19 18:02:00,53.4,42.3,29.91,SW,236,0.0,0.0,66,0.00,,,0.01,Wunderground v.1.15,2013-10-19 23:02:00,
2013-10-19 18:08:00,53.2,42.5,29.91,SW,236,0.0,0.0,67,0.00,,,0.01,Wunderground v.1.15,2013-10-19 23:08:00,
2013-10-19 18:14:00,53.0,41.9,29.91,SW,236,0.0,2.0,66,0.00,,,0.01,Wunderground v.1.15,2013-10-19 23:14:00,
2013-10-19 18:20:00,52.7,41.7,29.91,SW,234,0.0,0.0,66,0.00,,,0.01,Wunderground v.1.15,2013-10-19 23:20:00,
2013-10-19 18:26:00,52.4,41.8,29.91,SW,234,0.0,1.0,67,0.00,,,0.01,Wunderground v.1.15,2013-10-19 23:26:00,
2013-10-19 18:32:00,52.2,41.6,29.92,SW,234,0.0,0.0,67,0.00,,,0.01,Wunderground v.1.15,2013-10-19 23:32:00,
2013-10-19 18:38:00,52.0,41.4,29.92,SW,234,0.0,0.0,67,0.00,,,0.01,Wunderground v.1.15,2013-10-19 23:38:00,
2013-10-19 18:44:00,51.7,41.1,29.92,SW,234,0.0,0.0,67,0.00,,,0.01,Wunderground v.1.15,2013-10-19 23:44:00,
2013-10-19 18:50:00,51.4,40.8,29.92,SW,234,0.0,0.0,67,0.00,,,0.01,Wunderground v.1.15,2013-10-19 23:50:00,
2013-10-19 18:56:00,51.2,40.6,29.92,SW,234,0.0,1.0,67,0.00,,,0.01,Wunderground v.1.15,2013-10-19 23:56:00,
2013-10-19 19:02:00,50.7,40.1,29.93,SW,234,0.0,1.0,67,0.00,,,0.01,Wunderground v.1.15,2013-10-20 00:02:00,
2013-10-19 19:08:00,50.3,39.8,29.92,SW,234,0.0,1.0,67,0.00,,,0.01,Wunderground v.1.15,2013-10-20 00:08:00,
2013-10-19 19:14:00,49.9,39.4,29.92,SW,234,0.0,1.0,67,0.00,,,0.01,Wunderground v.1.15,2013-10-20 00:14:00,
2013-10-19 19:20:00,49.4,38.9,29.92,SW,234,0.0,1.0,67,0.00,,,0.01,Wunderground v.1.15,2013-10-20 00:20:00,
2013-10-19 19:26:00,49.0,38.5,29.92,SW,234,0.0,1.0,67,0.00,,,0.01,Wunderground v.1.15,2013-10-20 00:26:00,
2013-10-19 19:32:00,48.7,38.6,29.92,SW,234,0.0,1.0,68,0.00,,,0.01,Wunderground v.1.15,2013-10-20 00:32:00,
2013-10-19 19:38:00,48.3,38.2,29.92,SW,234,0.0,1.0,68,0.00,,,0.01,Wunderground v.1.15,2013-10-20 00:38:00,
2013-10-19 19:44:00,48.0,37.9,29.92,SW,234,0.0,1.0,68,0.00,,,0.01,Wunderground v.1.15,2013-10-20 00:44:00,
2013-10-19 19:50:00,47.8,37.7,29.92,SW,233,0.0,1.0,68,0.00,,,0.01,Wunderground v.1.15,2013-10-20 00:50:00,
2013-10-19 19:56:00,47.7,38.0,29.92,SW,233,0.0,1.0,69,0.00,,,0.01,Wunderground v.1.15,2013-10-20 00:56:00,
2013-10-19 20:02:00,47.7,38.0,29.92,SW,233,0.0,1.0,69,0.00,,,0.01,Wunderground v.1.15,2013-10-20 01:02:00,
2013-10-19 20:08:00,47.6,37.9,29.92,SW,233,0.0,1.0,69,0.00,,,0.01,Wunderground v.1.15,2013-10-20 01:08:00,
2013-10-19 20:14:00,47.6,38.3,29.92,SW,233,0.0,1.0,70,0.00,,,0.01,Wunderground v.1.15,2013-10-20 01:14:00,
2013-10-19 20:20:00,47.6,38.3,29.92,SW,231,0.0,1.0,70,0.00,,,0.01,Wunderground v.1.15,2013-10-20 01:20:00,
2013-10-19 20:26:00,47.6,38.3,29.92,SW,231,0.0,1.0,70,0.00,,,0.01,Wunderground v.1.15,2013-10-20 01:26:00,
2013-10-19 20:32:00,47.6,38.3,29.92,SW,231,0.0,1.0,70,0.00,,,0.01,Wunderground v.1.15,2013-10-20 01:32:00,
2013-10-19 20:38:00,47.5,38.2,29.92,SW,231,0.0,1.0,70,0.00,,,0.01,Wunderground v.1.15,2013-10-20 01:38:00,
2013-10-19 20:44:00,47.4,38.1,29.92,SW,231,0.0,1.0,70,0.00,,,0.01,Wunderground v.1.15,2013-10-20 01:44:00,
2013-10-19 20:50:00,47.3,38.0,29.92,SW,231,0.0,1.0,70,0.00,,,0.01,Wunderground v.1.15,2013-10-20 01:50:00,
2013-10-19 20:56:00,47.1,37.8,29.92,SW,230,0.0,2.0,70,0.00,,,0.01,Wunderground v.1.15,2013-10-20 01:56:00,
2013-10-19 21:02:00,47.0,37.7,29.92,SW,230,1.0,1.0,70,0.00,,,0.01,Wunderground v.1.15,2013-10-20 02:02:00,
2013-10-19 21:08:00,46.9,38.0,29.92,SW,229,1.0,4.0,71,0.00,,,0.01,Wunderground v.1.15,2013-10-20 02:08:00,
2013-10-19 21:14:00,46.9,38.0,29.92,SW,227,1.0,1.0,71,0.00,,,0.01,Wunderground v.1.15,2013-10-20 02:14:00,
2013-10-19 21:20:00,46.9,38.0,29.92,SW,225,1.0,1.0,71,0.00,,,0.01,Wunderground v.1.15,2013-10-20 02:20:00,
2013-10-19 21:26:00,46.9,38.0,29.92,SSW,207,1.0,3.0,71,0.00,,,0.01,Wunderground v.1.15,2013-10-20 02:26:00,
2013-10-19 21:32:00,47.0,38.4,29.92,South,184,2.0,3.0,72,0.00,,,0.01,Wunderground v.1.15,2013-10-20 02:32:00,
2013-10-19 21:38:00,47.1,38.5,29.92,South,183,2.0,3.0,72,0.00,,,0.01,Wunderground v.1.15,2013-10-20 02:38:00,
2013-10-19 21:44:00,47.1,38.5,29.92,South,182,1.0,1.0,72,0.00,,,0.01,Wunderground v.1.15,2013-10-20 02:44:00,
2013-10-19 21:50:00,47.1,38.5,29.92,South,179,1.0,1.0,72,0.00,,,0.01,Wunderground v.1.15,2013-10-20 02:50:00,
2013-10-19 21:56:00,47.1,38.5,29.92,South,177,2.0,2.0,72,0.00,,,0.01,Wunderground v.1.15,2013-10-20 02:56:00,
2013-10-19 22:02:00,47.2,38.6,29.92,South,177,1.0,2.0,72,0.00,,,0.01,Wunderground v.1.15,2013-10-20 03:02:00,
2013-10-19 22:08:00,47.2,38.6,29.92,South,176,1.0,2.0,72,0.00,,,0.01,Wunderground v.1.15,2013-10-20 03:08:00,
2013-10-19 22:14:00,47.1,38.5,29.92,South,176,1.0,2.0,72,0.00,,,0.01,Wunderground v.1.15,2013-10-20 03:14:00,
2013-10-19 22:20:00,47.0,38.4,29.92,South,175,1.0,1.0,72,0.00,,,0.01,Wunderground v.1.15,2013-10-20 03:20:00,
2013-10-19 22:26:00,47.0,38.4,29.92,South,175,1.0,2.0,72,0.00,,,0.01,Wunderground v.1.15,2013-10-20 03:26:00,
2013-10-19 22:32:00,46.8,38.2,29.92,South,175,0.0,2.0,72,0.00,,,0.01,Wunderground v.1.15,2013-10-20 03:32:00,
2013-10-19 22:38:00,46.8,38.2,29.92,South,175,0.0,2.0,72,0.00,,,0.01,Wunderground v.1.15,2013-10-20 03:38:00,
2013-10-19 22:44:00,46.7,38.1,29.92,South,175,1.0,2.0,72,0.00,,,0.01,Wunderground v.1.15,2013-10-20 03:44:00,
2013-10-19 22:50:00,46.6,38.1,29.92,South,173,1.0,1.0,72,0.00,,,0.01,Wunderground v.1.15,2013-10-20 03:50:00,
2013-10-19 22:56:00,46.6,38.4,29.92,South,174,1.0,2.0,73,0.00,,,0.01,Wunderground v.1.15,2013-10-20 03:56:00,
2013-10-19 23:02:00,46.5,38.3,29.92,South,174,1.0,2.0,73,0.00,,,0.01,Wunderground v.1.15,2013-10-20 04:02:00,
2013-10-19 23:06:00,46.4,38.2,29.92,South,174,0.0,6.0,73,0.00,,,0.01,Wunderground v.1.15,2013-10-20 04:06:00,
2013-10-19 23:08:00,46.4,38.2,29.92,South,173,0.0,6.0,73,0.00,,,0.01,Wunderground v.1.15,2013-10-20 04:08:00,
2013-10-19 23:10:00,46.4,38.2,29.92,South,174,0.0,2.0,73,0.00,,,0.01,Wunderground v.1.15,2013-10-20 04:10:00,
2013-10-19 23:16:00,46.3,38.1,29.92,South,173,0.0,2.0,73,0.00,,,0.01,Wunderground v.1.15,2013-10-20 04:16:00,
2013-10-19 23:18:00,46.2,38.0,29.92,South,174,0.0,2.0,73,0.00,,,0.01,Wunderground v.1.15,2013-10-20 04:18:00,
2013-10-19 23:24:00,46.1,37.9,29.92,South,174,0.0,2.0,73,0.00,,,0.01,Wunderground v.1.15,2013-10-20 04:24:00,
2013-10-19 23:30:00,45.9,37.7,29.92,South,174,0.0,2.0,73,0.00,,,0.01,Wunderground v.1.15,2013-10-20 04:30:00,
2013-10-19 23:36:00,45.8,37.6,29.92,South,174,0.0,2.0,73,0.00,,,0.01,Wunderground v.1.15,2013-10-20 04:36:00,
2013-10-19 23:38:00,45.8,37.6,29.92,South,173,0.0,2.0,73,0.00,,,0.01,Wunderground v.1.15,2013-10-20 04:38:00,
2013-10-19 23:44:00,45.7,37.5,29.92,South,174,0.0,2.0,73,0.00,,,0.01,Wunderground v.1.15,2013-10-20 04:44:00,
2013-10-19 23:50:00,45.6,37.4,29.92,South,173,0.0,2.0,73,0.00,,,0.01,Wunderground v.1.15,2013-10-20 04:50:00,
2013-10-19 23:56:00,45.4,37.2,29.92,South,174,0.0,2.0,73,0.00,,,0.01,Wunderground v.1.15,2013-10-20 04:56:00,